Time,TemperatureF,DewpointF,PressureIn,WindDirection,WindDirectionDegrees,WindSpeedMPH,WindSpeedGustMPH,Humidity,HourlyPrecipIn,Conditions,Clouds,dailyrainin,SoftwareType,DateUTC
2013-03-06 00:02:00,21.0,18.0,-100.00,North,10,9.0,17.0,87,0.00,,,0.00,,2013-03-06 06:02:00,
2013-03-06 00:11:00,21.0,18.0,-100.00,North,10,12.0,16.0,88,0.00,,,0.00,,2013-03-06 06:11:00,
2013-03-06 00:22:00,20.0,18.0,-100.00,NNE,20,13.0,19.0,88,0.00,,,0.00,,2013-03-06 06:22:00,
2013-03-06 00:31:00,20.0,18.0,-100.00,North,5,11.0,17.0,89,0.00,,,0.00,,2013-03-06 06:31:00,
2013-03-06 00:42:00,20.0,18.0,-100.00,North,0,11.0,15.0,89,0.00,,,0.00,,2013-03-06 06:42:00,
2013-03-06 00:52:00,20.0,18.0,-100.00,North,0,10.0,15.0,89,0.00,,,0.00,,2013-03-06 06:52:00,
2013-03-06 01:01:00,20.0,18.0,-100.00,North,350,11.0,16.0,89,0.00,,,0.00,,2013-03-06 07:01:00,
2013-03-06 01:11:00,20.0,18.0,-100.00,NNW,345,11.0,15.0,89,0.00,,,0.00,,2013-03-06 07:11:00,
2013-03-06 01:22:00,20.0,18.0,-100.00,North,10,10.0,14.0,90,0.00,,,0.00,,2013-03-06 07:22:00,
2013-03-06 01:31:00,20.0,18.0,-100.00,North,5,12.0,14.0,90,0.00,,,0.00,,2013-03-06 07:31:00,
2013-03-06 01:42:00,19.0,18.0,-100.00,North,0,9.0,11.0,90,0.00,,,0.00,,2013-03-06 07:42:00,
2013-03-06 01:52:00,20.0,18.0,-100.00,North,355,7.0,12.0,90,0.00,,,0.00,,2013-03-06 07:52:00,
2013-03-06 02:01:00,19.0,18.0,-100.00,North,0,6.0,12.0,90,0.00,,,0.00,,2013-03-06 08:01:00,
2013-03-06 02:11:00,19.0,18.0,-100.00,NNE,15,11.0,14.0,90,0.00,,,0.00,,2013-03-06 08:11:00,
2013-03-06 02:21:00,19.0,18.0,-100.00,North,0,9.0,12.0,90,0.00,,,0.00,,2013-03-06 08:21:00,
2013-03-06 02:31:00,19.0,18.0,-100.00,NNW,345,7.0,12.0,91,0.00,,,0.00,,2013-03-06 08:31:00,
2013-03-06 02:42:00,19.0,18.0,-100.00,NNW,340,10.0,15.0,91,0.00,,,0.00,,2013-03-06 08:42:00,
2013-03-06 02:52:00,19.0,18.0,-100.00,North,350,10.0,14.0,91,0.00,,,0.00,,2013-03-06 08:52:00,
2013-03-06 03:01:00,19.0,18.0,-100.00,North,350,10.0,14.0,91,0.00,,,0.00,,2013-03-06 09:01:00,
2013-03-06 03:12:00,19.0,18.0,-100.00,NNW,345,7.0,12.0,91,0.00,,,0.00,,2013-03-06 09:12:00,
2013-03-06 03:21:00,19.0,18.0,-100.00,NNW,335,8.0,11.0,92,0.00,,,0.00,,2013-03-06 09:21:00,
2013-03-06 03:31:00,19.0,18.0,-100.00,NNW,345,8.0,10.0,92,0.00,,,0.00,,2013-03-06 09:31:00,
2013-03-06 03:42:00,18.0,16.0,-100.00,North,10,11.0,12.0,92,0.00,,,0.00,,2013-03-06 09:42:00,
2013-03-06 03:51:00,18.0,16.0,-100.00,North,5,8.0,11.0,92,0.00,,,0.00,,2013-03-06 09:51:00,
2013-03-06 04:01:00,18.0,16.0,-100.00,North,0,7.0,10.0,92,0.00,,,0.00,,2013-03-06 10:01:00,
2013-03-06 04:11:00,18.0,16.0,-100.00,North,355,7.0,14.0,93,0.00,,,0.00,,2013-03-06 10:11:00,
2013-03-06 04:21:00,18.0,16.0,-100.00,North,5,8.0,12.0,93,0.00,,,0.00,,2013-03-06 10:21:00,
2013-03-06 04:31:00,18.0,16.0,-100.00,NNE,15,7.0,9.0,93,0.00,,,0.00,,2013-03-06 10:31:00,
2013-03-06 04:42:00,18.0,16.0,-100.00,North,5,6.0,12.0,93,0.00,,,0.00,,2013-03-06 10:42:00,
2013-03-06 04:51:00,18.0,16.0,-100.00,NNE,25,10.0,12.0,93,0.00,,,0.00,,2013-03-06 10:51:00,
2013-03-06 05:02:00,18.0,16.0,-100.00,NNE,15,7.0,12.0,94,0.00,,,0.00,,2013-03-06 11:02:00,
2013-03-06 05:11:00,18.0,16.0,-100.00,North,0,7.0,9.0,94,0.00,,,0.00,,2013-03-06 11:11:00,
2013-03-06 05:22:00,18.0,16.0,-100.00,NNE,30,10.0,12.0,94,0.00,,,0.00,,2013-03-06 11:22:00,
2013-03-06 05:32:00,18.0,16.0,-100.00,NNE,30,8.0,11.0,94,0.00,,,0.00,,2013-03-06 11:32:00,
2013-03-06 05:42:00,17.0,16.0,-100.00,NNE,15,9.0,11.0,94,0.00,,,0.00,,2013-03-06 11:42:00,
2013-03-06 05:52:00,17.0,16.0,-100.00,North,5,6.0,11.0,95,0.00,,,0.00,,2013-03-06 11:52:00,
2013-03-06 06:02:00,17.0,16.0,-100.00,NE,35,7.0,10.0,95,0.00,,,0.00,,2013-03-06 12:02:00,
2013-03-06 06:11:00,17.0,16.0,-100.00,NE,45,6.0,9.0,95,0.00,,,0.00,,2013-03-06 12:11:00,
2013-03-06 06:21:00,17.0,16.0,-100.00,NE,45,6.0,9.0,95,0.00,,,0.00,,2013-03-06 12:21:00,
2013-03-06 06:32:00,17.0,16.0,-100.00,NE,40,7.0,10.0,95,0.00,,,0.00,,2013-03-06 12:32:00,
2013-03-06 06:42:00,17.0,16.0,-100.00,North,5,7.0,9.0,96,0.00,,,0.00,,2013-03-06 12:42:00,
2013-03-06 06:52:00,17.0,16.0,-100.00,NNE,15,5.0,11.0,96,0.00,,,0.00,,2013-03-06 12:52:00,
2013-03-06 07:02:00,17.0,16.0,-100.00,North,0,4.0,7.0,96,0.00,,,0.00,,2013-03-06 13:02:00,
2013-03-06 07:11:00,17.0,16.0,-100.00,NNE,30,6.0,8.0,96,0.00,,,0.00,,2013-03-06 13:11:00,
2013-03-06 07:22:00,17.0,16.0,-100.00,North,0,6.0,7.0,96,0.00,,,0.00,,2013-03-06 13:22:00,
2013-03-06 07:32:00,17.0,16.0,-100.00,NE,50,4.0,6.0,96,0.00,,,0.00,,2013-03-06 13:32:00,
2013-03-06 07:42:00,17.0,16.0,-100.00,North,10,2.0,6.0,96,0.00,,,0.00,,2013-03-06 13:42:00,
2013-03-06 07:52:00,17.0,16.0,-100.00,NE,35,4.0,6.0,96,0.00,,,0.00,,2013-03-06 13:52:00,
2013-03-06 08:01:00,17.0,16.0,-100.00,NNE,15,3.0,6.0,96,0.00,,,0.00,,2013-03-06 14:01:00,
2013-03-06 08:11:00,17.0,16.0,-100.00,North,350,2.0,7.0,96,0.00,,,0.00,,2013-03-06 14:11:00,
2013-03-06 08:21:00,17.0,16.0,-100.00,ENE,60,3.0,7.0,96,0.00,,,0.00,,2013-03-06 14:21:00,
2013-03-06 08:32:00,17.0,16.0,-100.00,NE,45,2.0,9.0,96,0.00,,,0.00,,2013-03-06 14:32:00,
2013-03-06 08:42:00,17.0,16.0,-100.00,NE,55,4.0,9.0,96,0.00,,,0.00,,2013-03-06 14:42:00,
2013-03-06 08:52:00,17.0,16.0,-100.00,NE,45,5.0,9.0,96,0.00,,,0.00,,2013-03-06 14:52:00,
2013-03-06 09:02:00,17.0,16.0,-100.00,NE,35,3.0,6.0,96,0.00,,,0.00,,2013-03-06 15:02:00,
2013-03-06 09:11:00,17.0,16.0,-100.00,NE,45,6.0,9.0,96,0.00,,,0.00,,2013-03-06 15:11:00,
2013-03-06 09:21:00,18.0,18.0,-100.00,ENE,65,4.0,7.0,96,0.00,,,0.00,,2013-03-06 15:21:00,
2013-03-06 09:32:00,18.0,16.0,-100.00,East,90,2.0,7.0,95,0.00,,,0.00,,2013-03-06 15:32:00,
2013-03-06 09:42:00,18.0,16.0,-100.00,NE,50,5.0,7.0,95,0.00,,,0.00,,2013-03-06 15:42:00,
2013-03-06 09:52:00,17.0,16.0,-100.00,ENE,60,6.0,8.0,95,0.00,,,0.00,,2013-03-06 15:52:00,
2013-03-06 10:01:00,18.0,16.0,-100.00,North,10,3.0,7.0,94,0.00,,,0.00,,2013-03-06 16:01:00,
2013-03-06 10:11:00,18.0,18.0,-100.00,NE,55,3.0,6.0,94,0.00,,,0.00,,2013-03-06 16:11:00,
2013-03-06 10:21:00,18.0,18.0,-100.00,ENE,60,7.0,9.0,94,0.00,,,0.00,,2013-03-06 16:21:00,
2013-03-06 10:32:00,18.0,16.0,-100.00,ESE,120,4.0,8.0,93,0.00,,,0.00,,2013-03-06 16:32:00,
2013-03-06 10:42:00,18.0,16.0,-100.00,ESE,110,5.0,7.0,92,0.00,,,0.00,,2013-03-06 16:42:00,
2013-03-06 10:52:00,18.0,16.0,-100.00,SSE,165,4.0,6.0,92,0.00,,,0.00,,2013-03-06 16:52:00,
2013-03-06 11:01:00,19.0,18.0,-100.00,South,185,2.0,5.0,92,0.00,,,0.00,,2013-03-06 17:01:00,
2013-03-06 11:11:00,19.0,18.0,-100.00,SSE,155,4.0,5.0,92,0.00,,,0.00,,2013-03-06 17:11:00,
2013-03-06 11:21:00,19.0,18.0,-100.00,South,175,4.0,6.0,91,0.00,,,0.00,,2013-03-06 17:21:00,
2013-03-06 11:32:00,20.0,18.0,-100.00,South,185,2.0,4.0,91,0.00,,,0.00,,2013-03-06 17:32:00,
2013-03-06 11:41:00,21.0,18.0,-100.00,South,175,2.0,6.0,89,0.00,,,0.00,,2013-03-06 17:41:00,
2013-03-06 11:52:00,22.0,19.0,-100.00,SSW,210,1.0,4.0,88,0.00,,,0.00,,2013-03-06 17:52:00,
2013-03-06 12:02:00,20.0,18.0,-100.00,South,170,6.0,7.0,87,0.00,,,0.00,,2013-03-06 18:02:00,
2013-03-06 12:28:00,21.0,18.0,-100.00,NE,50,6.0,7.0,88,0.00,,,0.00,,2013-03-06 18:28:00,
2013-03-06 12:42:00,20.0,18.0,-100.00,SSE,150,7.0,8.0,88,0.00,,,0.00,,2013-03-06 18:42:00,
2013-03-06 12:52:00,20.0,18.0,-100.00,SSE,165,4.0,8.0,90,0.00,,,0.00,,2013-03-06 18:52:00,
2013-03-06 13:02:00,22.0,19.0,-100.00,ESE,115,2.0,4.0,89,0.00,,,0.00,,2013-03-06 19:02:00,
2013-03-06 13:11:00,22.0,19.0,-100.00,SE,140,4.0,5.0,89,0.00,,,0.00,,2013-03-06 19:11:00,
2013-03-06 13:21:00,21.0,19.0,-100.00,ESE,105,2.0,7.0,89,0.00,,,0.00,,2013-03-06 19:21:00,
2013-03-06 13:32:00,21.0,18.0,-100.00,South,170,4.0,8.0,89,0.00,,,0.00,,2013-03-06 19:32:00,
2013-03-06 13:43:00,21.0,19.0,-100.00,SE,125,3.0,9.0,89,0.00,,,0.00,,2013-03-06 19:43:00,
2013-03-06 13:52:00,23.0,21.0,-100.00,SW,220,1.0,5.0,89,0.00,,,0.00,,2013-03-06 19:52:00,
2013-03-06 14:02:00,22.0,19.0,-100.00,South,190,6.0,8.0,88,0.00,,,0.00,,2013-03-06 20:02:00,
2013-03-06 14:11:00,23.0,19.0,-100.00,SSW,200,8.0,10.0,87,0.00,,,0.00,,2013-03-06 20:11:00,
2013-03-06 14:22:00,24.0,21.0,-100.00,SW,230,4.0,11.0,87,0.00,,,0.00,,2013-03-06 20:22:00,
2013-03-06 14:32:00,24.0,19.0,-100.00,SSE,150,2.0,7.0,85,0.00,,,0.00,,2013-03-06 20:32:00,
2013-03-06 14:42:00,22.0,19.0,-100.00,SSE,160,6.0,8.0,86,0.00,,,0.00,,2013-03-06 20:42:00,
2013-03-06 14:52:00,22.0,19.0,-100.00,South,175,9.0,11.0,87,0.00,,,0.00,,2013-03-06 20:52:00,
2013-03-06 15:02:00,23.0,19.0,-100.00,South,185,4.0,9.0,89,0.00,,,0.00,,2013-03-06 21:02:00,
2013-03-06 15:11:00,22.0,19.0,-100.00,SSE,160,6.0,10.0,88,0.00,,,0.00,,2013-03-06 21:11:00,
2013-03-06 15:22:00,22.0,19.0,-100.00,SE,145,6.0,9.0,89,0.00,,,0.00,,2013-03-06 21:22:00,
2013-03-06 15:32:00,23.0,21.0,-100.00,SE,140,5.0,9.0,88,0.00,,,0.00,,2013-03-06 21:32:00,
2013-03-06 15:42:00,23.0,21.0,-100.00,SE,145,6.0,10.0,88,0.00,,,0.00,,2013-03-06 21:42:00,
2013-03-06 15:51:00,23.0,21.0,-100.00,SSE,165,6.0,9.0,89,0.00,,,0.00,,2013-03-06 21:51:00,
2013-03-06 16:01:00,23.0,21.0,-100.00,SE,135,7.0,12.0,89,0.00,,,0.00,,2013-03-06 22:01:00,
2013-03-06 16:11:00,23.0,19.0,-100.00,SSE,150,10.0,15.0,89,0.00,,,0.00,,2013-03-06 22:11:00,
2013-03-06 16:21:00,23.0,21.0,-100.00,SE,140,10.0,12.0,90,0.00,,,0.00,,2013-03-06 22:21:00,
2013-03-06 16:32:00,23.0,19.0,-100.00,SE,135,10.0,12.0,90,0.00,,,0.00,,2013-03-06 22:32:00,
2013-03-06 16:41:00,22.0,19.0,-100.00,SE,140,9.0,12.0,90,0.00,,,0.00,,2013-03-06 22:41:00,
2013-03-06 16:51:00,23.0,21.0,-100.00,SSE,155,10.0,13.0,91,0.00,,,0.00,,2013-03-06 22:51:00,
2013-03-06 17:01:00,23.0,21.0,-100.00,SE,135,9.0,15.0,91,0.00,,,0.00,,2013-03-06 23:01:00,
2013-03-06 17:11:00,23.0,21.0,-100.00,SE,140,7.0,12.0,91,0.00,,,0.00,,2013-03-06 23:11:00,
2013-03-06 17:21:00,23.0,21.0,-100.00,SSE,150,12.0,14.0,91,0.00,,,0.00,,2013-03-06 23:21:00,
2013-03-06 17:32:00,24.0,21.0,-100.00,SE,140,9.0,12.0,91,0.00,,,0.00,,2013-03-06 23:32:00,
2013-03-06 17:42:00,24.0,21.0,-100.00,SE,135,12.0,16.0,91,0.00,,,0.00,,2013-03-06 23:42:00,
2013-03-06 17:52:00,23.0,21.0,-100.00,SSE,150,13.0,16.0,91,0.00,,,0.00,,2013-03-06 23:52:00,
2013-03-06 18:01:00,23.0,21.0,-100.00,SE,140,12.0,15.0,91,0.00,,,0.00,,2013-03-07 00:01:00,
2013-03-06 18:11:00,23.0,21.0,-100.00,SSE,150,11.0,14.0,91,0.00,,,0.00,,2013-03-07 00:11:00,
2013-03-06 18:21:00,23.0,21.0,-100.00,SE,145,11.0,13.0,92,0.00,,,0.00,,2013-03-07 00:21:00,
2013-03-06 18:32:00,23.0,21.0,-100.00,SE,140,11.0,15.0,92,0.00,,,0.00,,2013-03-07 00:32:00,
2013-03-06 18:41:00,23.0,21.0,-100.00,SSE,150,11.0,13.0,92,0.00,,,0.00,,2013-03-07 00:41:00,
2013-03-06 18:51:00,23.0,21.0,-100.00,SE,145,10.0,13.0,93,0.00,,,0.00,,2013-03-07 00:51:00,
2013-03-06 19:01:00,24.0,21.0,-100.00,SE,140,11.0,14.0,93,0.00,,,0.00,,2013-03-07 01:01:00,
2013-03-06 19:11:00,24.0,21.0,-100.00,SE,145,14.0,16.0,92,0.00,,,0.00,,2013-03-07 01:11:00,
2013-03-06 19:21:00,24.0,21.0,-100.00,SE,140,11.0,14.0,92,0.00,,,0.00,,2013-03-07 01:21:00,
2013-03-06 19:31:00,23.0,21.0,-100.00,SE,140,11.0,12.0,92,0.00,,,0.00,,2013-03-07 01:31:00,
2013-03-06 19:41:00,23.0,21.0,-100.00,SE,145,13.0,16.0,93,0.00,,,0.00,,2013-03-07 01:41:00,
2013-03-06 19:51:00,22.0,21.0,-100.00,SE,135,11.0,17.0,93,0.00,,,0.00,,2013-03-07 01:51:00,
2013-03-06 20:01:00,22.0,21.0,-100.00,SE,130,12.0,15.0,93,0.00,,,0.00,,2013-03-07 02:01:00,
2013-03-06 20:11:00,22.0,21.0,-100.00,SE,125,12.0,16.0,93,0.00,,,0.00,,2013-03-07 02:11:00,
2013-03-06 20:21:00,22.0,19.0,-100.00,SE,125,9.0,14.0,93,0.00,,,0.00,,2013-03-07 02:21:00,
2013-03-06 20:32:00,21.0,19.0,-100.00,SE,130,11.0,14.0,94,0.00,,,0.00,,2013-03-07 02:32:00,
2013-03-06 20:41:00,21.0,19.0,-100.00,SE,130,11.0,14.0,94,0.00,,,0.00,,2013-03-07 02:41:00,
2013-03-06 20:51:00,21.0,19.0,-100.00,SE,130,11.0,14.0,94,0.00,,,0.00,,2013-03-07 02:51:00,
2013-03-06 21:02:00,21.0,19.0,-100.00,SE,135,13.0,15.0,95,0.00,,,0.00,,2013-03-07 03:02:00,
2013-03-06 21:11:00,20.0,19.0,-100.00,SE,140,11.0,16.0,95,0.00,,,0.00,,2013-03-07 03:11:00,
2013-03-06 21:21:00,20.0,19.0,-100.00,SE,135,12.0,16.0,96,0.00,,,0.00,,2013-03-07 03:21:00,
2013-03-06 21:32:00,20.0,19.0,-100.00,SE,125,12.0,14.0,96,0.00,,,0.00,,2013-03-07 03:32:00,
2013-03-06 21:42:00,20.0,19.0,-100.00,SE,125,11.0,14.0,96,0.00,,,0.00,,2013-03-07 03:42:00,
2013-03-06 21:52:00,20.0,19.0,-100.00,SE,125,11.0,15.0,97,0.00,,,0.00,,2013-03-07 03:52:00,
2013-03-06 22:01:00,20.0,19.0,-100.00,SE,125,12.0,15.0,97,0.00,,,0.00,,2013-03-07 04:01:00,
2013-03-06 22:11:00,20.0,19.0,-100.00,ESE,120,11.0,15.0,97,0.00,,,0.00,,2013-03-07 04:11:00,
2013-03-06 23:42:00,18.0,18.0,-100.00,SE,140,8.0,12.0,98,0.00,,,0.00,,2013-03-07 05:42:00,
2013-03-06 23:52:00,18.0,18.0,-100.00,SE,135,9.0,11.0,98,0.00,,,0.00,,2013-03-07 05:52:00,